Regional Weather Roundup
Issued by NWS Green Bay, WI

Current Version | Previous Version | Text Only | Print | Product List | Glossary On
Versions: 1 2 3 4 5 6 7 8 9 10 11 12 13 14 15 16 17 18 19 20 21 22 23 24 25 26 27 28 29 30 31 32 33 34 35 36 37 38 39 40 41 42 43 44 45 46 47 48 49 50
000
ASUS43 KGRB 260100
RWRGRB

NORTH-CENTRAL AND NORTHEAST WISCONSIN REGIONAL WEATHER ROUNDUP
NATIONAL WEATHER SERVICE GREEN BAY WI
800 PM CDT TUE SEP 25 2018

WIZ005-009-010>012-018-019-260200-
NORTH CENTRAL WISCONSIN

CITY           SKY/WX    TMP DP  RH WIND       PRES   REMARKS
IRONWOOD       LGT RAIN  47  46  97 W10       29.89R
MANITOWISH WTR CLOUDY    46  46 100 W7        29.89R
ARBOR VITAE    NOT AVBL
EAGLE RIVER    DRIZZLE   48  48  98 NW8       29.85R
LAND O LAKES   DRIZZLE   48  47  95 NW5       29.87S
RHINELANDER    CLOUDY    51  46  83 NW8       29.87R
PHILLIPS       CLOUDY    46  46 100 NW3       29.90R
ANTIGO         CLOUDY    51  51 100 NW13      29.85R
TOMAHAWK       CLOUDY    48  46  93 NW10      29.89R
MERRILL        CLOUDY    51  50  95 NW8       29.88R
$$

WIZ013-073-260200-
NORTHEAST WISCONSIN

CITY           SKY/WX    TMP DP  RH WIND       PRES   REMARKS
IRON MOUNTAIN  CLOUDY    52  50  93 NW8       29.80S
MARINETTE      CLOUDY    57  56  96 N7        29.78R
$$

WIZ017-030-035>037-045-260200-
CENTRAL WISCONSIN

CITY           SKY/WX    TMP DP  RH WIND       PRES   REMARKS
MEDFORD        CLOUDY    47  44  88 NW13      29.91R
WAUSAU         CLOUDY    53  49  86 NW15G24   29.86R
MOSINEE        CLOUDY    52  52 100 NW8       29.88R
MARSHFIELD     CLOUDY    51  48  89 NW15G26   29.90R
WISC RAPIDS    CLOUDY    54  49  83 NW9       29.90R
STEVENS POINT  CLOUDY    52  51  99 W5        29.88R
WAUPACA        CLOUDY    58  56  93 W8        29.85R
SHAWANO        DRIZZLE   59  58  94 NW7       29.81R
CLINTONVILLE   DRIZZLE   58  56  92 NW9       29.83R
WAUTOMA        CLOUDY    57  54  89 W15G21    29.87R
$$

WIZ038-039-048-051-260200-
FOX VALLEY

CITY           SKY/WX    TMP DP  RH WIND       PRES   REMARKS
NWS GREEN BAY  CLOUDY    62  60  93 NW8       29.79R
APPLETON       CLOUDY    59  59 100 NW13      29.80R
OSHKOSH        CLOUDY    60  58  92 W14G29    29.82R
FOND DU LAC    LGT RAIN  60  58  92 NW15G26   29.83R
$$

WIZ022-050-052-260200-
EAST CENTRAL WISCONSIN

CITY           SKY/WX    TMP DP  RH WIND       PRES   REMARKS
EPHRAIM        NOT AVBL
WASHINGTON ISL CLOUDY    55  54  97 N15       29.74F
STURGEON BAY   CLOUDY    59  58  96 N7        29.76R
MANITOWOC      FAIR      61  59  93 W6        29.78R
SHEBOYGAN      FAIR      61  59  93 W7        29.78R
$$

LMZ563-521-522-541>543-260200-
LAKESHORE

STATION/POSITION TIME  TEMP    WIND        PRES    VSBY  WAVE
                       AIR SEA DIR/SP/G                  HT/PER
                 (UTC) (F)     (DEG/KT/KT) (MB)    (MI)  (FT/S)
SHEBOYGAN LKSHOR 0000   63     280/ 10/ 12 1007.3F
KEWAUNEE LKSHORE 0030   61     320/  3/  4 1006.2R
NORTHPORT PIER   0040   58      10/  7/  8 1007.1F
N MID LAKE BUOY  0040   60 63   10/ 19/ 23 1006.3F
S GREEN BAY BUOY 0030   67 66   50/ 16/ 17 1007.5F
SISTER BAY LKSHO 0023   58      10/ 10/ 12   N/A
CHAMBERS ISLAND  0040   59     360/ 15/ 18 1007.8F
MENOMINEE LKSHOR 0030   59 66   20/ 15/ 18 1007.2R
$$



USA.gov is the U.S. government's official web portal to all federal, state and local government web resources and services.